[[{"header":{"parameterUnit":"m.s-1","parameterCategory":1,"la1":30.2991,"la2":30.254,"lo1":-89.0895,"lo2":-89.0444,"dy":0.0017,"dx":0.0017,"nx":28,"ny":28,"refTime":"2025-04-26T03:00:00:Z","depth":0,"parameterNumber":2,"parameterNumberName":"U-component_of_WINDS"},"data":[0,0,0,0,0,0,0,0,0,0,0,0,0,0,0,0,0,0,0,0,0,0,0,0,0,0,0,0,0,0,0,0,0,0,0,0,0,0,0,0,0,0,0,0,0,0,0,0,0,0,0,0,0,0,0,0,0,0,1.0428,1.0429,0,1.0591,1.0593,1.0595,1.0658,1.0658,1.0657,1.0657,1.0826,1.0831,1.0836,0,0,0,0,0,0,0,0,0,0,0,0,0,1.017,1.0175,1.0427,1.0429,1.0431,1.0591,1.0593,1.0595,1.0658,1.0658,1.0657,1.0657,1.0825,1.083,1.0836,0,0,0,0,0,0,0,0,0,0,0,0,0,1.0303,1.0176,1.0427,1.0482,1.0489,1.059,1.0593,1.0596,1.0658,1.0658,1.0657,1.0656,1.0823,1.083,1.0837,1.0897,0,0,1.086,1.0863,0,0,0,0,0,0,0,0,1.0295,1.0312,1.0472,1.0478,1.0486,1.0603,1.0565,1.0697,1.0658,1.0594,1.0657,1.0656,1.0753,1.0766,1.0798,1.0905,1.0912,1.086,1.0865,1.0868,1.087,0,0,0,0,0,0,0,1.0286,1.0305,1.0492,1.0474,1.0483,1.0499,1.0517,1.059,1.0675,1.0599,1.0604,1.0623,1.0757,1.0791,1.0803,1.0915,1.086,1.0867,1.0871,1.0874,1.1078,1.1079,0,0,0,0,0,0,1.0267,1.0297,1.0487,1.0497,1.0387,1.0504,1.0524,1.0566,1.0675,1.069,1.0623,1.0625,1.0779,1.0794,1.0809,1.0886,1.0868,1.0875,1.0879,1.1077,1.1078,1.1079,0,0,0,0,0,0,1.0262,1.0284,1.048,1.0399,1.0425,1.0509,1.0556,1.057,1.0604,1.0693,1.0708,1.0643,1.0779,1.0798,1.0874,1.0892,1.0878,1.0885,1.1076,1.1077,1.1079,1.104,0,0,0,0,0,0,1.0254,1.0281,1.0305,1.0399,1.0429,1.0543,1.0557,1.0574,1.0617,1.0621,1.0715,1.073,1.078,1.0863,1.0882,1.0902,1.0891,1.1075,1.1076,1.1078,1.104,1.104,1.1039,0,0,0,0,0,1.0245,1.0288,1.0305,1.0328,1.046,1.0544,1.0561,1.0617,1.0618,1.0642,1.0699,1.0727,1.0887,1.087,1.0892,1.0915,1.1074,1.1076,1.1078,1.104,1.104,1.1039,0,0,0,0,0,0,1.0194,1.0301,1.0322,1.0397,1.046,1.0554,1.0587,1.0615,1.068,1.0681,1.0748,1.0769,1.0839,1.0885,1.0864,1.0978,1.0982,1.0989,1.0946,1.0947,1.0946,1.0934,1.0897,0,0,0,0,0,1.0192,1.025,1.0341,1.0398,1.0429,1.0502,1.054,1.0578,1.0647,1.0674,1.0736,1.0803,1.0868,1.091,1.0975,1.1046,1.1068,1.1073,1.1073,1.1072,1.1077,1.1118,1.1122,1.1086,1.1086,1.1086,0,0,1.0188,1.0253,1.0286,1.0389,1.0443,1.0503,1.0524,1.0586,1.0631,1.0684,1.0759,1.0807,1.0885,1.0959,1.0995,1.0999,1.1092,1.1075,1.1074,1.108,1.1121,1.1124,1.1127,1.1088,1.1087,1.1087,0,0,1.021,1.0265,1.0319,1.0372,1.0453,1.0501,1.0514,1.0603,1.0637,1.0713,1.0753,1.0808,1.0919,1.0973,1.1015,1.1057,1.1085,1.1076,1.1076,1.1115,1.1117,1.112,1.1135,1.114,1.1081,1.1081,1.1081,0,1.0195,1.0286,1.0343,1.0403,1.0447,1.0496,1.0551,1.06,1.0698,1.0728,1.0731,1.0871,1.0927,1.1014,1.1024,1.1056,1.1073,1.1066,1.1112,1.1116,1.1119,1.1134,1.114,1.1079,1.1079,1.1079,1.1079,0,1.0263,1.0325,1.0359,1.0451,1.0499,1.0556,1.0622,1.0664,1.0696,1.0744,1.0821,1.089,1.097,1.0993,1.1026,1.1084,1.1085,1.1099,1.1105,1.112,1.1135,1.1141,1.1077,1.1077,1.1078,1.1078,0,0,1.0259,1.0382,1.0393,1.0436,1.0528,1.0578,1.0636,1.0713,1.0748,1.0813,1.0865,1.0957,1.0971,1.1018,1.1058,1.1092,1.112,1.1103,1.1105,1.1103,1.1189,1.1177,1.1183,1.1139,1.114,1.1141,1.1182,0,1.0294,1.0402,1.0455,1.0539,1.0597,1.0644,1.0696,1.0758,1.0803,1.086,1.0911,1.0975,1.0988,1.1017,1.1053,1.1109,1.1138,1.1107,1.1188,1.119,1.1167,1.1191,1.1179,1.1215,1.1188,1.1189,1.119,0,1.035,1.0414,1.0504,1.0589,1.0615,1.066,1.0735,1.0788,1.0859,1.089,1.0942,1.0981,1.1044,1.1045,1.1134,1.1111,1.1147,1.1179,1.1182,1.1192,1.1191,1.1202,1.1227,1.1232,1.12,1.1199,1.1199,0,1.0338,1.0447,1.0515,1.055,1.0651,1.0681,1.0725,1.0795,1.0838,1.0903,1.0931,1.1003,1.1043,1.1097,1.1154,1.1149,1.1237,1.1242,1.1265,1.1264,1.1282,1.128,1.1314,1.1305,1.1305,1.1304,1.1304,0,1.0372,1.0425,1.0511,1.0553,1.0614,1.0674,1.0733,1.078,1.0842,1.0894,1.0939,1.0986,1.1058,1.1115,1.1159,1.1226,1.1243,1.127,1.1282,1.1267,1.1263,1.1292,1.1291,1.1306,1.1306,1.1305,1.1305,0,1.037,1.043,1.0507,1.0595,1.0619,1.0659,1.0735,1.0778,1.0825,1.089,1.0909,1.0984,1.1053,1.1114,1.1206,1.1236,1.1304,1.1318,1.128,1.1286,1.1305,1.1302,1.1358,1.1369,1.1352,1.1352,1.1352,0,1.0387,1.0429,1.0522,1.056,1.0602,1.0662,1.0706,1.0766,1.081,1.0893,1.0926,1.0997,1.1058,1.1166,1.1229,1.1299,1.1315,1.133,1.1326,1.131,1.1316,1.1313,1.1317,1.133,1.133,1.133,1.133,0,1.0413,1.044,1.0501,1.0572,1.0622,1.0681,1.0741,1.077,1.0842,1.0888,1.0959,1.1006,1.1098,1.1169,1.1246,1.1291,1.1323,1.133,1.1339,1.1324,1.1301,1.1314,1.1279,1.1329,1.1329,1.1329,1.1329,1.1329,1.0422,1.0461,1.0532,1.0598,1.0649,1.0704,1.0748,1.0801,1.0861,1.094,1.0973,1.1044,1.1114,1.122,1.1265,1.1322,1.1328,1.1341,1.1345,1.1347,1.1344,1.1291,1.1336,1.1337,1.1337,1.1337,1.1337,0,1.0449,1.0497,1.0557,1.064,1.0691,1.0715,1.0783,1.0825,1.0887,1.0949,1.1008,1.1088,1.1157,1.1225,1.1297,1.133,1.1346,1.1347,1.1345,1.1355,1.1335,1.132,1.1332,1.1332,1.1332,1.1332,1.1332,1.1332,1.047,1.0537,1.0573,1.0666,1.0714,1.0784,1.082,1.0871,1.0921,1.1009,1.1066,1.1109,1.1174,1.1251,1.1315,1.1333,1.1358,1.1355,1.1377,1.1357,1.1357,1.1356,1.1343,1.136,1.136,1.1393,1.1393,1.1393]},{"header":{"parameterUnit":"m.s-1","parameterCategory":1,"la1":30.2991,"la2":30.254,"lo1":-89.0895,"lo2":-89.0444,"dy":0.0017,"dx":0.0017,"nx":28,"ny":28,"refTime":"2025-04-26T03:00:00:Z","depth":0,"parameterNumber":3,"parameterNumberName":"V-component_of_WINDS"},"data":[0,0,0,0,0,0,0,0,0,0,0,0,0,0,0,0,0,0,0,0,0,0,0,0,0,0,0,0,0,0,0,0,0,0,0,0,0,0,0,0,0,0,0,0,0,0,0,0,0,0,0,0,0,0,0,0,0,0,3.1136,3.1136,0,3.108,3.1079,3.1078,3.109,3.1091,3.1092,3.1093,3.1026,3.1024,3.1021,0,0,0,0,0,0,0,0,0,0,0,0,0,3.1247,3.1245,3.1136,3.1136,3.1135,3.108,3.1079,3.1078,3.109,3.1091,3.1092,3.1093,3.1027,3.1024,3.1021,0,0,0,0,0,0,0,0,0,0,0,0,0,3.1195,3.1244,3.1136,3.1134,3.1133,3.108,3.1079,3.1078,3.1089,3.1091,3.1092,3.1094,3.1028,3.1024,3.102,3.0963,0,0,3.1008,3.1006,0,0,0,0,0,0,0,0,3.1198,3.1191,3.1135,3.1134,3.1133,3.1094,3.1094,3.1039,3.1089,3.1106,3.1093,3.1095,3.1047,3.1041,3.1027,3.096,3.0957,3.1007,3.1005,3.1003,3.1002,0,0,0,0,0,0,0,3.1201,3.1193,3.1114,3.1134,3.1133,3.1133,3.1128,3.1083,3.1068,3.1104,3.1105,3.1099,3.1047,3.1031,3.1025,3.0956,3.1007,3.1004,3.1001,3.0999,3.0838,3.0837,0,0,0,0,0,0,3.1207,3.1196,3.1115,3.1112,3.117,3.113,3.1124,3.1105,3.1068,3.1065,3.1097,3.1099,3.1037,3.103,3.1023,3.0953,3.1003,3.0999,3.0997,3.084,3.0838,3.0836,0,0,0,0,0,0,3.1209,3.12,3.1118,3.1154,3.1144,3.1127,3.1105,3.1103,3.1087,3.1063,3.106,3.1085,3.1038,3.1029,3.0978,3.0951,3.0997,3.0993,3.0842,3.0839,3.0837,3.0813,0,0,0,0,0,0,3.1212,3.1201,3.118,3.1154,3.1142,3.1076,3.1103,3.11,3.1081,3.1083,3.105,3.1046,3.1039,3.0984,3.0974,3.0946,3.099,3.0844,3.0841,3.0838,3.0816,3.081,3.0805,0,0,0,0,0,3.1216,3.1174,3.1179,3.1169,3.1117,3.1075,3.1067,3.1062,3.1079,3.1057,3.1042,3.1047,3.0956,3.0979,3.0968,3.0938,3.0846,3.0842,3.0838,3.0819,3.0811,3.0805,0,0,0,0,0,0,3.1194,3.1171,3.1176,3.1124,3.1102,3.1077,3.1049,3.1054,3.1024,3.1027,3.1019,3.1011,3.0959,3.0944,3.097,3.088,3.0903,3.0897,3.0893,3.0885,3.088,3.0884,3.0987,0,0,0,0,0,3.1184,3.1155,3.1134,3.109,3.1079,3.1066,3.1047,3.1046,3.1021,3.101,3.0991,3.0964,3.093,3.0907,3.0873,3.0815,3.0807,3.0789,3.0783,3.0778,3.0772,3.0739,3.0731,3.0823,3.0823,3.0823,0,0,3.1161,3.1145,3.1126,3.1086,3.1068,3.1035,3.1058,3.1022,3.0997,3.1004,3.0956,3.0941,3.091,3.0855,3.083,3.084,3.0745,3.0773,3.077,3.0766,3.0734,3.0725,3.0718,3.082,3.082,3.0821,0,0,3.1103,3.1088,3.105,3.1033,3.1007,3.0999,3.099,3.0964,3.0955,3.0908,3.0912,3.0881,3.0822,3.08,3.0781,3.0716,3.0719,3.0705,3.0674,3.0642,3.0634,3.0628,3.0604,3.0595,3.0699,3.0699,3.0699,0,3.1077,3.1031,3.1029,3.0994,3.0975,3.0984,3.0944,3.0926,3.0889,3.0875,3.0888,3.0814,3.0794,3.0734,3.0719,3.0703,3.0691,3.0708,3.0636,3.063,3.0623,3.06,3.0591,3.0697,3.0697,3.0698,3.0698,0,3.1,3.0967,3.0939,3.0907,3.0885,3.0847,3.0838,3.0816,3.0816,3.0806,3.0756,3.0733,3.0695,3.0681,3.0679,3.062,3.0628,3.0639,3.0661,3.0613,3.0591,3.0582,3.0695,3.0695,3.0696,3.0696,0,0,3.0924,3.0894,3.0883,3.0869,3.0841,3.0815,3.0777,3.0743,3.0723,3.0698,3.0664,3.0615,3.0625,3.0603,3.0599,3.0572,3.0521,3.0586,3.0585,3.0574,3.0453,3.0444,3.0434,3.0524,3.0522,3.0521,3.0455,0,3.0863,3.0799,3.0797,3.0738,3.0707,3.0715,3.0682,3.066,3.0649,3.062,3.0607,3.0572,3.0588,3.0575,3.0548,3.0533,3.0496,3.0537,3.049,3.0488,3.0497,3.0423,3.0413,3.0353,3.0447,3.0445,3.0444,0,3.0782,3.0758,3.0696,3.0674,3.0661,3.0631,3.06,3.0572,3.0547,3.0541,3.0518,3.0519,3.0477,3.0503,3.0444,3.0473,3.0453,3.0442,3.044,3.0434,3.0462,3.0414,3.0333,3.0324,3.0431,3.0432,3.0433,0,3.0732,3.0684,3.0641,3.0628,3.0601,3.058,3.0567,3.0544,3.0524,3.0496,3.0482,3.0449,3.043,3.0403,3.0393,3.0412,3.0335,3.0359,3.0327,3.0327,3.0309,3.031,3.0223,3.0298,3.0298,3.0298,3.0299,0,3.0663,3.0625,3.0618,3.0591,3.0548,3.0546,3.0502,3.049,3.047,3.0439,3.0443,3.0414,3.0404,3.0372,3.0364,3.0316,3.0308,3.03,3.0298,3.0299,3.03,3.0285,3.0289,3.0296,3.0297,3.0297,3.0297,0,3.06,3.0594,3.0547,3.0527,3.0521,3.049,3.0471,3.0444,3.0435,3.0396,3.0386,3.0371,3.0334,3.0323,3.0277,3.0271,3.0216,3.0218,3.0225,3.0224,3.0192,3.0195,3.0092,3.0078,3.0163,3.0162,3.0162,0,3.0555,3.0527,3.0504,3.0485,3.0473,3.0442,3.0423,3.0419,3.0398,3.0368,3.0344,3.0308,3.0279,3.0219,3.0202,3.0167,3.0167,3.0134,3.0162,3.0164,3.0165,3.0167,3.0164,3.0128,3.0127,3.0126,3.0125,0,3.0477,3.0476,3.0449,3.0422,3.0399,3.0376,3.0354,3.0337,3.033,3.0306,3.027,3.0248,3.0203,3.0166,3.0131,3.0115,3.0118,3.0117,3.0108,3.0108,3.0113,3.0109,3.0209,3.0119,3.012,3.012,3.0121,3.0121,3.0421,3.0396,3.0377,3.0346,3.033,3.031,3.0284,3.0273,3.0244,3.0209,3.0208,3.0168,3.0143,3.0097,3.0079,3.0046,3.0056,3.0042,3.0038,3.0035,3.0032,3.012,3.004,3.004,3.004,3.004,3.004,0,3.0342,3.0331,3.0303,3.0274,3.025,3.0259,3.0235,3.0214,3.018,3.0158,3.013,3.0088,3.0053,3.0035,2.9999,2.9976,2.9977,2.9967,2.9968,2.9964,3.0026,3.0037,2.9967,2.9967,2.9967,2.9967,2.9967,2.9967,3.0298,3.0256,3.0253,3.0203,3.0191,3.0155,3.014,3.012,3.0103,3.0057,3.003,3.0019,2.9997,2.9961,2.9928,2.9924,2.991,2.9899,2.9894,2.9952,2.996,2.9967,2.9977,2.9896,2.9896,2.9835,2.9835,2.9834]}]]